owner,sensor,date,latitude,longitude,vertical_datum,sea_water_temperature,qcFlag 
COMPS,ioos:station:USF.COMPS:ANC:1,2012-09-07T12:00:00Z,28.1930,-82.7890,-1.0,29.44,2 
COMPS,ioos:station:USF.COMPS:ANC:1,2012-09-07T12:06:00Z,28.1930,-82.7890,-1.0,29.44,2 
COMPS,ioos:station:USF.COMPS:ANC:1,2012-09-07T12:12:00Z,28.1930,-82.7890,-1.0,29.48,2 
COMPS,ioos:station:USF.COMPS:ANC:1,2012-09-07T12:18:00Z,28.1930,-82.7890,-1.0,29.6,2 
COMPS,ioos:station:USF.COMPS:ANC:1,2012-09-07T12:24:00Z,28.1930,-82.7890,-1.0,29.59,2 
COMPS,ioos:station:USF.COMPS:ANC:1,2012-09-07T12:30:00Z,28.1930,-82.7890,-1.0,29.55,2 
COMPS,ioos:station:USF.COMPS:ANC:1,2012-09-07T12:36:00Z,28.1930,-82.7890,-1.0,29.51,2 
COMPS,ioos:station:USF.COMPS:ANC:1,2012-09-07T12:42:00Z,28.1930,-82.7890,-1.0,29.55,2 
COMPS,ioos:station:USF.COMPS:ANC:1,2012-09-07T12:48:00Z,28.1930,-82.7890,-1.0,29.59,2 
COMPS,ioos:station:USF.COMPS:ANC:1,2012-09-07T12:54:00Z,28.1930,-82.7890,-1.0,29.61,2 
COMPS,ioos:station:USF.COMPS:ANC:1,2012-09-07T13:00:00Z,28.1930,-82.7890,-1.0,29.65,2 
COMPS,ioos:station:USF.COMPS:ANC:1,2012-09-07T13:06:00Z,28.1930,-82.7890,-1.0,29.67,2 
COMPS,ioos:station:USF.COMPS:ANC:1,2012-09-07T13:12:00Z,28.1930,-82.7890,-1.0,29.7,2 
COMPS,ioos:station:USF.COMPS:ANC:1,2012-09-07T13:18:00Z,28.1930,-82.7890,-1.0,29.72,2 
COMPS,ioos:station:USF.COMPS:ANC:1,2012-09-07T13:24:00Z,28.1930,-82.7890,-1.0,29.73,2 
COMPS,ioos:station:USF.COMPS:ANC:1,2012-09-07T13:30:00Z,28.1930,-82.7890,-1.0,29.76,2 
COMPS,ioos:station:USF.COMPS:ANC:1,2012-09-07T13:36:00Z,28.1930,-82.7890,-1.0,29.8,2 
COMPS,ioos:station:USF.COMPS:ANC:1,2012-09-07T13:42:00Z,28.1930,-82.7890,-1.0,29.82,2 
COMPS,ioos:station:USF.COMPS:ANC:1,2012-09-07T13:48:00Z,28.1930,-82.7890,-1.0,29.86,2 
COMPS,ioos:station:USF.COMPS:ANC:1,2012-09-07T13:54:00Z,28.1930,-82.7890,-1.0,29.9,2 
COMPS,ioos:station:USF.COMPS:ANC:1,2012-09-07T14:00:00Z,28.1930,-82.7890,-1.0,29.93,2 
COMPS,ioos:station:USF.COMPS:ANC:1,2012-09-07T14:06:00Z,28.1930,-82.7890,-1.0,29.94,2 
COMPS,ioos:station:USF.COMPS:ANC:1,2012-09-07T14:12:00Z,28.1930,-82.7890,-1.0,30.14,2 
COMPS,ioos:station:USF.COMPS:ANC:1,2012-09-07T14:18:00Z,28.1930,-82.7890,-1.0,30.11,2 
COMPS,ioos:station:USF.COMPS:ANC:1,2012-09-07T14:24:00Z,28.1930,-82.7890,-1.0,30.11,2 
COMPS,ioos:station:USF.COMPS:ANC:1,2012-09-07T14:30:00Z,28.1930,-82.7890,-1.0,30.2,2 
COMPS,ioos:station:USF.COMPS:ANC:1,2012-09-07T14:36:00Z,28.1930,-82.7890,-1.0,30.33,2 
COMPS,ioos:station:USF.COMPS:ANC:1,2012-09-07T14:42:00Z,28.1930,-82.7890,-1.0,30.47,2 
COMPS,ioos:station:USF.COMPS:ANC:1,2012-09-07T14:48:00Z,28.1930,-82.7890,-1.0,30.52,2 
COMPS,ioos:station:USF.COMPS:ANC:1,2012-09-07T14:54:00Z,28.1930,-82.7890,-1.0,30.54,2 
COMPS,ioos:station:USF.COMPS:ANC:1,2012-09-07T16:00:00Z,28.1930,-82.7890,-1.0,30.61,2 
COMPS,ioos:station:USF.COMPS:ANC:1,2012-09-07T16:06:00Z,28.1930,-82.7890,-1.0,30.65,2 
COMPS,ioos:station:USF.COMPS:ANC:1,2012-09-07T16:12:00Z,28.1930,-82.7890,-1.0,30.66,2 
COMPS,ioos:station:USF.COMPS:ANC:1,2012-09-07T16:18:00Z,28.1930,-82.7890,-1.0,30.66,2 
COMPS,ioos:station:USF.COMPS:ANC:1,2012-09-07T16:24:00Z,28.1930,-82.7890,-1.0,30.65,2 
COMPS,ioos:station:USF.COMPS:ANC:1,2012-09-07T16:30:00Z,28.1930,-82.7890,-1.0,30.65,2 
COMPS,ioos:station:USF.COMPS:ANC:1,2012-09-07T16:36:00Z,28.1930,-82.7890,-1.0,30.65,2 
COMPS,ioos:station:USF.COMPS:ANC:1,2012-09-07T16:42:00Z,28.1930,-82.7890,-1.0,30.63,2 
COMPS,ioos:station:USF.COMPS:ANC:1,2012-09-07T16:48:00Z,28.1930,-82.7890,-1.0,30.64,2 
COMPS,ioos:station:USF.COMPS:ANC:1,2012-09-07T16:54:00Z,28.1930,-82.7890,-1.0,30.65,2 
COMPS,ioos:station:USF.COMPS:ANC:1,2012-09-07T17:00:00Z,28.1930,-82.7890,-1.0,30.7,2 
COMPS,ioos:station:USF.COMPS:ANC:1,2012-09-07T17:06:00Z,28.1930,-82.7890,-1.0,30.68,2 
COMPS,ioos:station:USF.COMPS:ANC:1,2012-09-07T17:12:00Z,28.1930,-82.7890,-1.0,30.68,2 
COMPS,ioos:station:USF.COMPS:ANC:1,2012-09-07T17:18:00Z,28.1930,-82.7890,-1.0,30.69,2 
COMPS,ioos:station:USF.COMPS:ANC:1,2012-09-07T17:24:00Z,28.1930,-82.7890,-1.0,30.71,2 
COMPS,ioos:station:USF.COMPS:ANC:1,2012-09-07T17:30:00Z,28.1930,-82.7890,-1.0,30.72,2 
COMPS,ioos:station:USF.COMPS:ANC:1,2012-09-07T17:36:00Z,28.1930,-82.7890,-1.0,30.7,2 
COMPS,ioos:station:USF.COMPS:ANC:1,2012-09-07T17:42:00Z,28.1930,-82.7890,-1.0,30.65,2 
COMPS,ioos:station:USF.COMPS:ANC:1,2012-09-07T17:48:00Z,28.1930,-82.7890,-1.0,30.6,2 
COMPS,ioos:station:USF.COMPS:ANC:1,2012-09-07T17:54:00Z,28.1930,-82.7890,-1.0,30.59,2 
COMPS,ioos:station:USF.COMPS:ANC:1,2012-09-07T18:00:00Z,28.1930,-82.7890,-1.0,30.61,2 
COMPS,ioos:station:USF.COMPS:ANC:1,2012-09-07T18:06:00Z,28.1930,-82.7890,-1.0,30.59,2 
COMPS,ioos:station:USF.COMPS:ANC:1,2012-09-07T18:12:00Z,28.1930,-82.7890,-1.0,30.55,2 
COMPS,ioos:station:USF.COMPS:ANC:1,2012-09-07T18:18:00Z,28.1930,-82.7890,-1.0,30.51,2 
COMPS,ioos:station:USF.COMPS:ANC:1,2012-09-07T18:24:00Z,28.1930,-82.7890,-1.0,30.49,2 
COMPS,ioos:station:USF.COMPS:ANC:1,2012-09-07T18:30:00Z,28.1930,-82.7890,-1.0,30.5,2 
COMPS,ioos:station:USF.COMPS:ANC:1,2012-09-07T18:36:00Z,28.1930,-82.7890,-1.0,30.44,2 
COMPS,ioos:station:USF.COMPS:ANC:1,2012-09-07T18:42:00Z,28.1930,-82.7890,-1.0,30.43,2 
COMPS,ioos:station:USF.COMPS:ANC:1,2012-09-07T18:48:00Z,28.1930,-82.7890,-1.0,30.37,2 
COMPS,ioos:station:USF.COMPS:ANC:1,2012-09-07T18:54:00Z,28.1930,-82.7890,-1.0,30.23,2 
COMPS,ioos:station:USF.COMPS:ANC:1,2012-09-07T19:00:00Z,28.1930,-82.7890,-1.0,30.2,2 
COMPS,ioos:station:USF.COMPS:ANC:1,2012-09-07T19:06:00Z,28.1930,-82.7890,-1.0,30.13,2 
COMPS,ioos:station:USF.COMPS:ANC:1,2012-09-07T19:12:00Z,28.1930,-82.7890,-1.0,30.13,2 
COMPS,ioos:station:USF.COMPS:ANC:1,2012-09-07T19:18:00Z,28.1930,-82.7890,-1.0,30.14,2 
COMPS,ioos:station:USF.COMPS:ANC:1,2012-09-07T19:24:00Z,28.1930,-82.7890,-1.0,30.14,2 
COMPS,ioos:station:USF.COMPS:ANC:1,2012-09-07T19:30:00Z,28.1930,-82.7890,-1.0,30.13,2 
COMPS,ioos:station:USF.COMPS:ANC:1,2012-09-07T19:36:00Z,28.1930,-82.7890,-1.0,30.16,2 
COMPS,ioos:station:USF.COMPS:ANC:1,2012-09-07T19:42:00Z,28.1930,-82.7890,-1.0,30.2,2 
COMPS,ioos:station:USF.COMPS:ANC:1,2012-09-07T19:48:00Z,28.1930,-82.7890,-1.0,30.16,2 
COMPS,ioos:station:USF.COMPS:ANC:1,2012-09-07T19:54:00Z,28.1930,-82.7890,-1.0,30.16,2 
COMPS,ioos:station:USF.COMPS:ANC:1,2012-09-07T20:00:00Z,28.1930,-82.7890,-1.0,30.2,2 
COMPS,ioos:station:USF.COMPS:ANC:1,2012-09-07T20:06:00Z,28.1930,-82.7890,-1.0,30.26,2 
COMPS,ioos:station:USF.COMPS:ANC:1,2012-09-07T20:12:00Z,28.1930,-82.7890,-1.0,30.3,2 
COMPS,ioos:station:USF.COMPS:ANC:1,2012-09-07T20:18:00Z,28.1930,-82.7890,-1.0,30.33,2 
COMPS,ioos:station:USF.COMPS:ANC:1,2012-09-07T20:24:00Z,28.1930,-82.7890,-1.0,30.37,2 
COMPS,ioos:station:USF.COMPS:ANC:1,2012-09-07T20:30:00Z,28.1930,-82.7890,-1.0,30.46,2 
COMPS,ioos:station:USF.COMPS:ANC:1,2012-09-07T20:36:00Z,28.1930,-82.7890,-1.0,30.45,2 
COMPS,ioos:station:USF.COMPS:ANC:1,2012-09-07T20:42:00Z,28.1930,-82.7890,-1.0,30.45,2 
COMPS,ioos:station:USF.COMPS:ANC:1,2012-09-07T20:48:00Z,28.1930,-82.7890,-1.0,30.48,2 
COMPS,ioos:station:USF.COMPS:ANC:1,2012-09-07T20:54:00Z,28.1930,-82.7890,-1.0,30.53,2 
COMPS,ioos:station:USF.COMPS:ANC:1,2012-09-07T21:00:00Z,28.1930,-82.7890,-1.0,30.5,2 
COMPS,ioos:station:USF.COMPS:ANC:1,2012-09-07T21:06:00Z,28.1930,-82.7890,-1.0,30.51,2 
COMPS,ioos:station:USF.COMPS:ANC:1,2012-09-07T21:12:00Z,28.1930,-82.7890,-1.0,30.51,2 
COMPS,ioos:station:USF.COMPS:ANC:1,2012-09-07T21:18:00Z,28.1930,-82.7890,-1.0,30.52,2 
COMPS,ioos:station:USF.COMPS:ANC:1,2012-09-07T21:24:00Z,28.1930,-82.7890,-1.0,30.53,2 
COMPS,ioos:station:USF.COMPS:ANC:1,2012-09-07T21:30:00Z,28.1930,-82.7890,-1.0,30.54,2 
COMPS,ioos:station:USF.COMPS:ANC:1,2012-09-07T21:36:00Z,28.1930,-82.7890,-1.0,30.58,2 
COMPS,ioos:station:USF.COMPS:ANC:1,2012-09-07T21:42:00Z,28.1930,-82.7890,-1.0,30.6,2 
COMPS,ioos:station:USF.COMPS:ANC:1,2012-09-07T21:48:00Z,28.1930,-82.7890,-1.0,30.6,2 
COMPS,ioos:station:USF.COMPS:ANC:1,2012-09-07T21:54:00Z,28.1930,-82.7890,-1.0,30.62,2 
COMPS,ioos:station:USF.COMPS:ANC:1,2012-09-07T22:00:00Z,28.1930,-82.7890,-1.0,30.6,2 
COMPS,ioos:station:USF.COMPS:ANC:1,2012-09-07T22:06:00Z,28.1930,-82.7890,-1.0,30.62,2 
COMPS,ioos:station:USF.COMPS:ANC:1,2012-09-07T22:12:00Z,28.1930,-82.7890,-1.0,30.62,2 
COMPS,ioos:station:USF.COMPS:ANC:1,2012-09-07T22:18:00Z,28.1930,-82.7890,-1.0,30.62,2 
COMPS,ioos:station:USF.COMPS:ANC:1,2012-09-07T22:24:00Z,28.1930,-82.7890,-1.0,30.61,2 
COMPS,ioos:station:USF.COMPS:ANC:1,2012-09-07T22:30:00Z,28.1930,-82.7890,-1.0,30.6,2 
COMPS,ioos:station:USF.COMPS:ANC:1,2012-09-07T22:36:00Z,28.1930,-82.7890,-1.0,30.59,2 
COMPS,ioos:station:USF.COMPS:ANC:1,2012-09-07T22:42:00Z,28.1930,-82.7890,-1.0,30.57,2 
COMPS,ioos:station:USF.COMPS:ANC:1,2012-09-07T22:48:00Z,28.1930,-82.7890,-1.0,30.53,2 
COMPS,ioos:station:USF.COMPS:ANC:1,2012-09-07T22:54:00Z,28.1930,-82.7890,-1.0,30.46,2 
COMPS,ioos:station:USF.COMPS:ANC:1,2012-09-07T23:00:00Z,28.1930,-82.7890,-1.0,30.38,2 
COMPS,ioos:station:USF.COMPS:ANC:1,2012-09-07T23:06:00Z,28.1930,-82.7890,-1.0,30.27,2 
COMPS,ioos:station:USF.COMPS:ANC:1,2012-09-07T23:12:00Z,28.1930,-82.7890,-1.0,30.25,2 
COMPS,ioos:station:USF.COMPS:ANC:1,2012-09-07T23:18:00Z,28.1930,-82.7890,-1.0,30.3,2 
COMPS,ioos:station:USF.COMPS:ANC:1,2012-09-07T23:24:00Z,28.1930,-82.7890,-1.0,30.39,2 
COMPS,ioos:station:USF.COMPS:ANC:1,2012-09-07T23:30:00Z,28.1930,-82.7890,-1.0,30.46,2 
COMPS,ioos:station:USF.COMPS:ANC:1,2012-09-07T23:36:00Z,28.1930,-82.7890,-1.0,30.49,2 
COMPS,ioos:station:USF.COMPS:ANC:1,2012-09-07T23:42:00Z,28.1930,-82.7890,-1.0,30.48,2 
COMPS,ioos:station:USF.COMPS:ANC:1,2012-09-07T23:48:00Z,28.1930,-82.7890,-1.0,30.48,2 
COMPS,ioos:station:USF.COMPS:ANC:1,2012-09-07T23:54:00Z,28.1930,-82.7890,-1.0,30.49,2 
COMPS,ioos:station:USF.COMPS:ANC:1,2012-09-08T00:00:00Z,28.1930,-82.7890,-1.0,30.5,2 
COMPS,ioos:station:USF.COMPS:ANC:1,2012-09-08T00:06:00Z,28.1930,-82.7890,-1.0,30.47,2 
COMPS,ioos:station:USF.COMPS:ANC:1,2012-09-08T00:12:00Z,28.1930,-82.7890,-1.0,30.48,2 
COMPS,ioos:station:USF.COMPS:ANC:1,2012-09-08T00:18:00Z,28.1930,-82.7890,-1.0,30.49,2 
COMPS,ioos:station:USF.COMPS:ANC:1,2012-09-08T00:24:00Z,28.1930,-82.7890,-1.0,30.5,2 
COMPS,ioos:station:USF.COMPS:ANC:1,2012-09-08T00:30:00Z,28.1930,-82.7890,-1.0,30.51,2 
COMPS,ioos:station:USF.COMPS:ANC:1,2012-09-08T00:36:00Z,28.1930,-82.7890,-1.0,30.54,2 
COMPS,ioos:station:USF.COMPS:ANC:1,2012-09-08T00:42:00Z,28.1930,-82.7890,-1.0,30.53,2 
COMPS,ioos:station:USF.COMPS:ANC:1,2012-09-08T00:48:00Z,28.1930,-82.7890,-1.0,30.52,2 
COMPS,ioos:station:USF.COMPS:ANC:1,2012-09-08T00:54:00Z,28.1930,-82.7890,-1.0,30.53,2 
COMPS,ioos:station:USF.COMPS:ANC:1,2012-09-08T01:00:00Z,28.1930,-82.7890,-1.0,30.5,2 
COMPS,ioos:station:USF.COMPS:ANC:1,2012-09-08T01:06:00Z,28.1930,-82.7890,-1.0,30.46,2 
COMPS,ioos:station:USF.COMPS:ANC:1,2012-09-08T01:12:00Z,28.1930,-82.7890,-1.0,30.39,2 
COMPS,ioos:station:USF.COMPS:ANC:1,2012-09-08T01:18:00Z,28.1930,-82.7890,-1.0,30.34,2 
COMPS,ioos:station:USF.COMPS:ANC:1,2012-09-08T01:24:00Z,28.1930,-82.7890,-1.0,30.29,2 
COMPS,ioos:station:USF.COMPS:ANC:1,2012-09-08T01:30:00Z,28.1930,-82.7890,-1.0,30.25,2 
COMPS,ioos:station:USF.COMPS:ANC:1,2012-09-08T01:36:00Z,28.1930,-82.7890,-1.0,30.19,2 
COMPS,ioos:station:USF.COMPS:ANC:1,2012-09-08T01:42:00Z,28.1930,-82.7890,-1.0,30.1,2 
COMPS,ioos:station:USF.COMPS:ANC:1,2012-09-08T01:48:00Z,28.1930,-82.7890,-1.0,30.07,2 
COMPS,ioos:station:USF.COMPS:ANC:1,2012-09-08T01:54:00Z,28.1930,-82.7890,-1.0,30.04,2 
COMPS,ioos:station:USF.COMPS:ANC:1,2012-09-08T02:00:00Z,28.1930,-82.7890,-1.0,30.0,2 
COMPS,ioos:station:USF.COMPS:ANC:1,2012-09-08T02:06:00Z,28.1930,-82.7890,-1.0,29.94,2 
COMPS,ioos:station:USF.COMPS:ANC:1,2012-09-08T02:12:00Z,28.1930,-82.7890,-1.0,29.89,2 
COMPS,ioos:station:USF.COMPS:ANC:1,2012-09-08T02:18:00Z,28.1930,-82.7890,-1.0,29.87,2 
COMPS,ioos:station:USF.COMPS:ANC:1,2012-09-08T02:24:00Z,28.1930,-82.7890,-1.0,29.88,2 
COMPS,ioos:station:USF.COMPS:ANC:1,2012-09-08T02:30:00Z,28.1930,-82.7890,-1.0,29.85,2 
COMPS,ioos:station:USF.COMPS:ANC:1,2012-09-08T02:36:00Z,28.1930,-82.7890,-1.0,29.8,2 
COMPS,ioos:station:USF.COMPS:ANC:1,2012-09-08T02:42:00Z,28.1930,-82.7890,-1.0,29.8,2 
COMPS,ioos:station:USF.COMPS:ANC:1,2012-09-08T02:48:00Z,28.1930,-82.7890,-1.0,29.81,2 
COMPS,ioos:station:USF.COMPS:ANC:1,2012-09-08T02:54:00Z,28.1930,-82.7890,-1.0,29.81,2 
COMPS,ioos:station:USF.COMPS:ANC:1,2012-09-08T03:00:00Z,28.1930,-82.7890,-1.0,29.8,2 
COMPS,ioos:station:USF.COMPS:ANC:1,2012-09-08T03:06:00Z,28.1930,-82.7890,-1.0,29.91,2 
COMPS,ioos:station:USF.COMPS:ANC:1,2012-09-08T03:12:00Z,28.1930,-82.7890,-1.0,30.02,2 
COMPS,ioos:station:USF.COMPS:ANC:1,2012-09-08T03:18:00Z,28.1930,-82.7890,-1.0,30.09,2 
COMPS,ioos:station:USF.COMPS:ANC:1,2012-09-08T03:24:00Z,28.1930,-82.7890,-1.0,30.04,2 
COMPS,ioos:station:USF.COMPS:ANC:1,2012-09-08T03:30:00Z,28.1930,-82.7890,-1.0,29.97,2 
COMPS,ioos:station:USF.COMPS:ANC:1,2012-09-08T03:36:00Z,28.1930,-82.7890,-1.0,29.99,2 
COMPS,ioos:station:USF.COMPS:ANC:1,2012-09-08T03:42:00Z,28.1930,-82.7890,-1.0,29.96,2 
COMPS,ioos:station:USF.COMPS:ANC:1,2012-09-08T03:48:00Z,28.1930,-82.7890,-1.0,29.92,2 
COMPS,ioos:station:USF.COMPS:ANC:1,2012-09-08T03:54:00Z,28.1930,-82.7890,-1.0,29.9,2 
COMPS,ioos:station:USF.COMPS:ANC:1,2012-09-08T04:00:00Z,28.1930,-82.7890,-1.0,29.9,2 
COMPS,ioos:station:USF.COMPS:ANC:1,2012-09-08T04:06:00Z,28.1930,-82.7890,-1.0,30.05,2 
COMPS,ioos:station:USF.COMPS:ANC:1,2012-09-08T04:12:00Z,28.1930,-82.7890,-1.0,30.13,2 
COMPS,ioos:station:USF.COMPS:ANC:1,2012-09-08T04:18:00Z,28.1930,-82.7890,-1.0,30.17,2 
COMPS,ioos:station:USF.COMPS:ANC:1,2012-09-08T04:24:00Z,28.1930,-82.7890,-1.0,30.21,2 
COMPS,ioos:station:USF.COMPS:ANC:1,2012-09-08T04:30:00Z,28.1930,-82.7890,-1.0,30.25,2 
COMPS,ioos:station:USF.COMPS:ANC:1,2012-09-08T04:36:00Z,28.1930,-82.7890,-1.0,30.26,2 
COMPS,ioos:station:USF.COMPS:ANC:1,2012-09-08T04:42:00Z,28.1930,-82.7890,-1.0,30.28,2 
COMPS,ioos:station:USF.COMPS:ANC:1,2012-09-08T04:48:00Z,28.1930,-82.7890,-1.0,30.28,2 
COMPS,ioos:station:USF.COMPS:ANC:1,2012-09-08T04:54:00Z,28.1930,-82.7890,-1.0,30.28,2 
COMPS,ioos:station:USF.COMPS:ANC:1,2012-09-08T05:00:00Z,28.1930,-82.7890,-1.0,30.3,2 
COMPS,ioos:station:USF.COMPS:ANC:1,2012-09-08T05:06:00Z,28.1930,-82.7890,-1.0,30.27,2 
COMPS,ioos:station:USF.COMPS:ANC:1,2012-09-08T05:12:00Z,28.1930,-82.7890,-1.0,30.28,2 
COMPS,ioos:station:USF.COMPS:ANC:1,2012-09-08T05:18:00Z,28.1930,-82.7890,-1.0,30.26,2 
COMPS,ioos:station:USF.COMPS:ANC:1,2012-09-08T05:24:00Z,28.1930,-82.7890,-1.0,30.24,2 
COMPS,ioos:station:USF.COMPS:ANC:1,2012-09-08T05:30:00Z,28.1930,-82.7890,-1.0,30.23,2 
COMPS,ioos:station:USF.COMPS:ANC:1,2012-09-08T05:36:00Z,28.1930,-82.7890,-1.0,30.22,2 
COMPS,ioos:station:USF.COMPS:ANC:1,2012-09-08T05:42:00Z,28.1930,-82.7890,-1.0,30.2,2 
COMPS,ioos:station:USF.COMPS:ANC:1,2012-09-08T05:48:00Z,28.1930,-82.7890,-1.0,30.13,2 
COMPS,ioos:station:USF.COMPS:ANC:1,2012-09-08T05:54:00Z,28.1930,-82.7890,-1.0,29.97,2 
COMPS,ioos:station:USF.COMPS:ANC:1,2012-09-08T06:00:00Z,28.1930,-82.7890,-1.0,30.0,2 
COMPS,ioos:station:USF.COMPS:ANC:1,2012-09-08T06:06:00Z,28.1930,-82.7890,-1.0,30.05,2 
COMPS,ioos:station:USF.COMPS:ANC:1,2012-09-08T06:12:00Z,28.1930,-82.7890,-1.0,30.1,2 
COMPS,ioos:station:USF.COMPS:ANC:1,2012-09-08T06:18:00Z,28.1930,-82.7890,-1.0,30.12,2 
COMPS,ioos:station:USF.COMPS:ANC:1,2012-09-08T06:24:00Z,28.1930,-82.7890,-1.0,30.13,2 
COMPS,ioos:station:USF.COMPS:ANC:1,2012-09-08T06:30:00Z,28.1930,-82.7890,-1.0,29.96,2 
COMPS,ioos:station:USF.COMPS:ANC:1,2012-09-08T06:36:00Z,28.1930,-82.7890,-1.0,29.96,2 
COMPS,ioos:station:USF.COMPS:ANC:1,2012-09-08T06:42:00Z,28.1930,-82.7890,-1.0,29.88,2 
COMPS,ioos:station:USF.COMPS:ANC:1,2012-09-08T06:48:00Z,28.1930,-82.7890,-1.0,29.78,2 
COMPS,ioos:station:USF.COMPS:ANC:1,2012-09-08T06:54:00Z,28.1930,-82.7890,-1.0,29.69,2 
COMPS,ioos:station:USF.COMPS:ANC:1,2012-09-08T07:00:00Z,28.1930,-82.7890,-1.0,29.7,2 
COMPS,ioos:station:USF.COMPS:ANC:1,2012-09-08T07:06:00Z,28.1930,-82.7890,-1.0,29.26,2 
COMPS,ioos:station:USF.COMPS:ANC:1,2012-09-08T07:12:00Z,28.1930,-82.7890,-1.0,29.24,2 
COMPS,ioos:station:USF.COMPS:ANC:1,2012-09-08T07:18:00Z,28.1930,-82.7890,-1.0,29.24,2 
COMPS,ioos:station:USF.COMPS:ANC:1,2012-09-08T07:24:00Z,28.1930,-82.7890,-1.0,29.19,2 
COMPS,ioos:station:USF.COMPS:ANC:1,2012-09-08T07:30:00Z,28.1930,-82.7890,-1.0,29.06,2 
COMPS,ioos:station:USF.COMPS:ANC:1,2012-09-08T07:36:00Z,28.1930,-82.7890,-1.0,29.16,2 
COMPS,ioos:station:USF.COMPS:ANC:1,2012-09-08T07:42:00Z,28.1930,-82.7890,-1.0,29.1,2 
COMPS,ioos:station:USF.COMPS:ANC:1,2012-09-08T07:48:00Z,28.1930,-82.7890,-1.0,29.13,2 
COMPS,ioos:station:USF.COMPS:ANC:1,2012-09-08T07:54:00Z,28.1930,-82.7890,-1.0,29.1,2 
COMPS,ioos:station:USF.COMPS:ANC:1,2012-09-08T08:00:00Z,28.1930,-82.7890,-1.0,29.1,2 
COMPS,ioos:station:USF.COMPS:ANC:1,2012-09-08T08:06:00Z,28.1930,-82.7890,-1.0,29.08,2 
COMPS,ioos:station:USF.COMPS:ANC:1,2012-09-08T08:12:00Z,28.1930,-82.7890,-1.0,29.09,2 
COMPS,ioos:station:USF.COMPS:ANC:1,2012-09-08T08:18:00Z,28.1930,-82.7890,-1.0,29.1,2 
COMPS,ioos:station:USF.COMPS:ANC:1,2012-09-08T08:24:00Z,28.1930,-82.7890,-1.0,29.11,2 
COMPS,ioos:station:USF.COMPS:ANC:1,2012-09-08T08:30:00Z,28.1930,-82.7890,-1.0,29.13,2 
COMPS,ioos:station:USF.COMPS:ANC:1,2012-09-08T08:36:00Z,28.1930,-82.7890,-1.0,29.18,2 
COMPS,ioos:station:USF.COMPS:ANC:1,2012-09-08T08:42:00Z,28.1930,-82.7890,-1.0,29.12,2 
COMPS,ioos:station:USF.COMPS:ANC:1,2012-09-08T08:48:00Z,28.1930,-82.7890,-1.0,29.1,2 
COMPS,ioos:station:USF.COMPS:ANC:1,2012-09-08T08:54:00Z,28.1930,-82.7890,-1.0,29.14,2 
COMPS,ioos:station:USF.COMPS:ANC:1,2012-09-08T09:00:00Z,28.1930,-82.7890,-1.0,29.1,2 
COMPS,ioos:station:USF.COMPS:ANC:1,2012-09-08T09:06:00Z,28.1930,-82.7890,-1.0,29.42,2 
COMPS,ioos:station:USF.COMPS:ANC:1,2012-09-08T09:12:00Z,28.1930,-82.7890,-1.0,29.67,2 
COMPS,ioos:station:USF.COMPS:ANC:1,2012-09-08T09:18:00Z,28.1930,-82.7890,-1.0,30.6,2 
COMPS,ioos:station:USF.COMPS:ANC:1,2012-09-08T09:24:00Z,28.1930,-82.7890,-1.0,30.17,2 
COMPS,ioos:station:USF.COMPS:ANC:1,2012-09-08T09:30:00Z,28.1930,-82.7890,-1.0,30.45,2 
COMPS,ioos:station:USF.COMPS:ANC:1,2012-09-08T09:36:00Z,28.1930,-82.7890,-1.0,30.3,2 
COMPS,ioos:station:USF.COMPS:ANC:1,2012-09-08T09:42:00Z,28.1930,-82.7890,-1.0,29.92,2 
COMPS,ioos:station:USF.COMPS:ANC:1,2012-09-08T09:48:00Z,28.1930,-82.7890,-1.0,30.14,2 
COMPS,ioos:station:USF.COMPS:ANC:1,2012-09-08T09:54:00Z,28.1930,-82.7890,-1.0,30.16,2 
COMPS,ioos:station:USF.COMPS:ANC:1,2012-09-08T10:00:00Z,28.1930,-82.7890,-1.0,30.61,2 
COMPS,ioos:station:USF.COMPS:ANC:1,2012-09-08T10:06:00Z,28.1930,-82.7890,-1.0,30.34,2 
COMPS,ioos:station:USF.COMPS:ANC:1,2012-09-08T10:12:00Z,28.1930,-82.7890,-1.0,30.34,2 
COMPS,ioos:station:USF.COMPS:ANC:1,2012-09-08T10:18:00Z,28.1930,-82.7890,-1.0,30.28,2 
COMPS,ioos:station:USF.COMPS:ANC:1,2012-09-08T10:24:00Z,28.1930,-82.7890,-1.0,30.64,2 
COMPS,ioos:station:USF.COMPS:ANC:1,2012-09-08T10:30:00Z,28.1930,-82.7890,-1.0,30.79,2 
COMPS,ioos:station:USF.COMPS:ANC:1,2012-09-08T10:36:00Z,28.1930,-82.7890,-1.0,31.01,2 
COMPS,ioos:station:USF.COMPS:ANC:1,2012-09-08T10:42:00Z,28.1930,-82.7890,-1.0,30.69,2 
COMPS,ioos:station:USF.COMPS:ANC:1,2012-09-08T10:48:00Z,28.1930,-82.7890,-1.0,30.39,2 
COMPS,ioos:station:USF.COMPS:ANC:1,2012-09-08T10:54:00Z,28.1930,-82.7890,-1.0,30.24,2 
COMPS,ioos:station:USF.COMPS:ANC:1,2012-09-08T11:00:00Z,28.1930,-82.7890,-1.0,30.2,2 
COMPS,ioos:station:USF.COMPS:ANC:1,2012-09-08T11:06:00Z,28.1930,-82.7890,-1.0,30.98,2 
COMPS,ioos:station:USF.COMPS:ANC:1,2012-09-08T11:12:00Z,28.1930,-82.7890,-1.0,30.3,2 
COMPS,ioos:station:USF.COMPS:ANC:1,2012-09-08T11:18:00Z,28.1930,-82.7890,-1.0,30.59,2 
COMPS,ioos:station:USF.COMPS:ANC:1,2012-09-08T11:24:00Z,28.1930,-82.7890,-1.0,30.21,2 
COMPS,ioos:station:USF.COMPS:ANC:1,2012-09-08T11:30:00Z,28.1930,-82.7890,-1.0,30.75,2 
COMPS,ioos:station:USF.COMPS:ANC:1,2012-09-08T11:36:00Z,28.1930,-82.7890,-1.0,30.91,2 
COMPS,ioos:station:USF.COMPS:ANC:1,2012-09-08T11:42:00Z,28.1930,-82.7890,-1.0,30.47,2 
COMPS,ioos:station:USF.COMPS:ANC:1,2012-09-08T11:48:00Z,28.1930,-82.7890,-1.0,30.23,2 
COMPS,ioos:station:USF.COMPS:ANC:1,2012-09-08T11:54:00Z,28.1930,-82.7890,-1.0,31.2,2 
COMPS,ioos:station:USF.COMPS:ANC:1,2012-09-08T12:00:00Z,28.1930,-82.7890,-1.0,30.33,2 
COMPS,ioos:station:USF.COMPS:ANC:1,2012-09-08T12:06:00Z,28.1930,-82.7890,-1.0,30.71,2 
COMPS,ioos:station:USF.COMPS:ANC:1,2012-09-08T12:12:00Z,28.1930,-82.7890,-1.0,30.92,2 
COMPS,ioos:station:USF.COMPS:ANC:1,2012-09-08T12:18:00Z,28.1930,-82.7890,-1.0,30.18,2 
COMPS,ioos:station:USF.COMPS:ANC:1,2012-09-08T12:24:00Z,28.1930,-82.7890,-1.0,30.45,2 
COMPS,ioos:station:USF.COMPS:ANC:1,2012-09-08T12:30:00Z,28.1930,-82.7890,-1.0,30.47,2 
COMPS,ioos:station:USF.COMPS:ANC:1,2012-09-08T12:36:00Z,28.1930,-82.7890,-1.0,29.72,2 
COMPS,ioos:station:USF.COMPS:ANC:1,2012-09-08T12:42:00Z,28.1930,-82.7890,-1.0,29.86,2 
COMPS,ioos:station:USF.COMPS:ANC:1,2012-09-08T12:48:00Z,28.1930,-82.7890,-1.0,30.46,2 
COMPS,ioos:station:USF.COMPS:ANC:1,2012-09-08T12:54:00Z,28.1930,-82.7890,-1.0,30.43,2 
COMPS,ioos:station:USF.COMPS:ANC:1,2012-09-08T13:00:00Z,28.1930,-82.7890,-1.0,30.4,2 
COMPS,ioos:station:USF.COMPS:ANC:1,2012-09-08T14:00:00Z,28.1930,-82.7890,-1.0,30.6,2 
COMPS,ioos:station:USF.COMPS:ANC:1,2012-09-08T14:06:00Z,28.1930,-82.7890,-1.0,30.01,2 
COMPS,ioos:station:USF.COMPS:ANC:1,2012-09-08T14:12:00Z,28.1930,-82.7890,-1.0,29.7,2 
COMPS,ioos:station:USF.COMPS:ANC:1,2012-09-08T14:18:00Z,28.1930,-82.7890,-1.0,29.89,2 
COMPS,ioos:station:USF.COMPS:ANC:1,2012-09-08T14:24:00Z,28.1930,-82.7890,-1.0,29.87,2 
COMPS,ioos:station:USF.COMPS:ANC:1,2012-09-08T14:30:00Z,28.1930,-82.7890,-1.0,29.75,2 
COMPS,ioos:station:USF.COMPS:ANC:1,2012-09-08T14:36:00Z,28.1930,-82.7890,-1.0,29.04,2 
COMPS,ioos:station:USF.COMPS:ANC:1,2012-09-08T14:42:00Z,28.1930,-82.7890,-1.0,29.73,2 
COMPS,ioos:station:USF.COMPS:ANC:1,2012-09-08T14:48:00Z,28.1930,-82.7890,-1.0,29.61,2 
COMPS,ioos:station:USF.COMPS:ANC:1,2012-09-08T14:54:00Z,28.1930,-82.7890,-1.0,29.87,2 
COMPS,ioos:station:USF.COMPS:ANC:1,2012-09-08T15:00:00Z,28.1930,-82.7890,-1.0,29.9,2 
COMPS,ioos:station:USF.COMPS:ANC:1,2012-09-08T15:06:00Z,28.1930,-82.7890,-1.0,30.51,2 
COMPS,ioos:station:USF.COMPS:ANC:1,2012-09-08T15:12:00Z,28.1930,-82.7890,-1.0,30.35,2 
COMPS,ioos:station:USF.COMPS:ANC:1,2012-09-08T15:18:00Z,28.1930,-82.7890,-1.0,30.31,2 
COMPS,ioos:station:USF.COMPS:ANC:1,2012-09-08T15:24:00Z,28.1930,-82.7890,-1.0,30.3,2 
COMPS,ioos:station:USF.COMPS:ANC:1,2012-09-08T15:30:00Z,28.1930,-82.7890,-1.0,30.4,2 
COMPS,ioos:station:USF.COMPS:ANC:1,2012-09-08T15:36:00Z,28.1930,-82.7890,-1.0,29.81,2 
COMPS,ioos:station:USF.COMPS:ANC:1,2012-09-08T15:42:00Z,28.1930,-82.7890,-1.0,30.52,2 
COMPS,ioos:station:USF.COMPS:ANC:1,2012-09-08T15:48:00Z,28.1930,-82.7890,-1.0,30.25,2 
COMPS,ioos:station:USF.COMPS:ANC:1,2012-09-08T15:54:00Z,28.1930,-82.7890,-1.0,30.47,2 
COMPS,ioos:station:USF.COMPS:ANC:1,2012-09-08T16:00:00Z,28.1930,-82.7890,-1.0,30.17,2 
COMPS,ioos:station:USF.COMPS:ANC:1,2012-09-08T16:06:00Z,28.1930,-82.7890,-1.0,30.15,2 
COMPS,ioos:station:USF.COMPS:ANC:1,2012-09-08T16:12:00Z,28.1930,-82.7890,-1.0,30.19,2 
COMPS,ioos:station:USF.COMPS:ANC:1,2012-09-08T16:18:00Z,28.1930,-82.7890,-1.0,30.68,2 
COMPS,ioos:station:USF.COMPS:ANC:1,2012-09-08T16:24:00Z,28.1930,-82.7890,-1.0,30.76,2 
COMPS,ioos:station:USF.COMPS:ANC:1,2012-09-08T16:30:00Z,28.1930,-82.7890,-1.0,30.38,2 
COMPS,ioos:station:USF.COMPS:ANC:1,2012-09-08T16:36:00Z,28.1930,-82.7890,-1.0,30.27,2 
COMPS,ioos:station:USF.COMPS:ANC:1,2012-09-08T16:42:00Z,28.1930,-82.7890,-1.0,30.61,2 
COMPS,ioos:station:USF.COMPS:ANC:1,2012-09-08T16:48:00Z,28.1930,-82.7890,-1.0,30.72,2 
COMPS,ioos:station:USF.COMPS:ANC:1,2012-09-08T16:54:00Z,28.1930,-82.7890,-1.0,31.11,2 
COMPS,ioos:station:USF.COMPS:ANC:1,2012-09-08T17:00:00Z,28.1930,-82.7890,-1.0,32.25,2 
COMPS,ioos:station:USF.COMPS:ANC:1,2012-09-08T17:06:00Z,28.1930,-82.7890,-1.0,31.05,2 
COMPS,ioos:station:USF.COMPS:ANC:1,2012-09-08T17:12:00Z,28.1930,-82.7890,-1.0,31.41,2 
COMPS,ioos:station:USF.COMPS:ANC:1,2012-09-08T17:18:00Z,28.1930,-82.7890,-1.0,31.75,2 